Vorticity
5 8 10 7 8 8 8 7 6 7 7 6 4 5 3 5 7 5 4 4 6 6 6 7 6 6 8 12 11 7 4 5 8 9 9 9 6 4 3 9 12 13 16
9 8 10 7 8 7 9 9 7 7 7 6 5 4 3 4 7 5 3 3 2 0 2 4 7 7 6 4 2 2 4 5 6 5 7 8 9 11 11 7 6 8 11
6 8 9 9 8 9 8 7 7 7 7 7 4 4 2 3 6 6 3 2 2 4 5 7 9 9 9 8 6 6 5 5 8 10 8 10 8 8 8 11 10 7 8
6 9 10 12 9 6 8 8 7 7 7 7 5 4 3 4 5 6 4 0 1 2 -3 1 9 11 9 10 8 8 6 6 7 7 4 7 11 9 11 8 8 7 7
10 6 8 8 8 5 6 9 9 8 7 7 5 4 3 3 4 6 5 1 3 1 -0 0 3 9 11 9 5 2 5 7 9 8 5 7 10 11 12 13 14 12 8
6 6 10 10 5 3 10 10 9 9 8 8 6 4 3 3 4 4 6 1 3 3 1 2 3 4 9 9 7 8 10 11 8 8 7 5 6 7 7 9 9 10 12
5 4 4 1 4 8 9 10 10 8 7 7 6 4 3 2 2 4 5 3 3 5 3 1 3 3 5 6 6 6 7 8 7 8 9 8 7 7 6 5 6 9 9
7 10 5 5 7 10 10 9 9 10 8 6 6 5 3 3 3 4 6 5 4 3 3 3 3 7 4 7 8 7 6 8 8 6 7 7 7 7 7 9 9 9 9
6 2 -1 -3 -11 -6 -9 9 15 14 12 10 9 8 7 6 5 4 3 5 5 4 4 3 7 7 4 9 12 10 9 9 8 7 6 6 6 6 6 6 8 9 9
1 0 -2 -3 -17 26 19 7 7 7 8 8 10 10 9 8 7 7 6 6 8 6 1 9 7 6 10 14 13 13 10 8 9 8 7 4 4 5 5 7 8 11 10
4 -1 0 -5 0 23 8 4 6 4 5 5 5 7 8 8 8 7 7 6 6 6 8 7 10 10 12 12 12 12 11 11 10 10 11 12 11 10 10 9 9 9 9
-3 -6 6 4 19 14 11 4 4 3 6 8 9 9 9 8 7 7 7 10 10 9 10 12 13 13 14 12 10 10 9 9 10 11 13 12 11 11 10 9 9 7 8
-6 -1 5 5 6 14 21 10 8 4 8 10 10 10 5 7 9 9 11 13 14 15 15 12 12 10 10 11 10 9 10 11 11 10 9 8 13 14 13 10 11 10 9
6 -6 15 9 38 18 11 10 10 7 3 7 9 11 12 11 14 15 14 13 11 11 11 10 9 9 7 7 7 8 8 9 10 10 9 10 10 10 11 12 12 10 10
20 12 41 30 14 10 6 4 8 11 9 8 8 9 11 11 9 9 10 9 8 8 6 8 9 8 9 8 8 8 8 7 6 8 10 9 10 11 11 10 11 9 9
20 19 12 9 5 0 -1 8 8 7 10 9 10 11 10 9 9 8 8 8 7 8 9 10 10 10 11 13 13 13 12 11 11 11 12 9 5 6 9 11 11 11 11
17 12 9 1 -0 6 9 10 10 11 11 9 9 8 8 8 8 7 8 9 9 8 8 9 9 8 8 8 10 11 12 12 11 10 11 12 12 11 10 11 10 9 11
12 4 -1 5 9 10 11 10 10 10 9 8 7 6 7 7 8 8 9 9 9 9 9 10 10 9 9 9 8 8 7 7 7 8 9 9 9 10 10 10 9 9 9
-4 7 11 11 11 14 13 8 6 4 4 5 6 7 7 8 8 9 8 10 10 11 12 12 12 12 11 11 10 10 11 10 10 9 9 9 9 11 11 11 11 10 10
10 8 11 14 9 5 5 5 4 4 5 8 11 16 20 22 20 19 17 15 14 14 15 16 17 16 16 16 15 14 13 13 12 12 12 13 14 12 12 11 11 10 13
11 11 6 4 4 3 2 4 8 14 20 20 15 9 7 6 8 10 10 10 10 10 11 12 13 14 16 16 16 16 16 16 16 15 15 14 14 14 13 13 11 12 13
6 5 3 3 5 8 14 21 19 10 7 9 10 9 10 11 12 11 11 12 12 12 12 11 12 13 15 14 14 14 14 15 14 14 15 16 16 15 14 15 13 18 17
4 4 4 9 18 19 11 8 10 8 7 11 10 9 11 11 11 11 11 11 12 12 12 12 12 14 15 13 13 13 13 13 14 14 14 15 16 17 18 17 15 16 5
6 11 17 15 9 10 9 9 9 8 10 9 8 8 8 8 9 9 10 11 12 13 14 14 14 13 13 14 14 12 12 14 15 16 16 14 13 13 16 21 15 13 10
16 13 10 10 8 9 8 9 7 6 7 7 8 7 7 8 9 9 10 11 13 14 14 14 14 14 13 15 15 14 13 14 15 16 17 18 17 16 16 7 19 18 21
10 9 9 9 8 7 8 8 7 8 8 8 8 8 9 10 11 11 11 11 14 14 14 15 14 14 14 14 15 12 6 5 8 -0 10 15 20 18 23 7 11 15 15
Height
3083 3083 3083 3083 3083 3084 3084 3084 3084 3085 3085 3085 3085 3085 3085 3085 3084 3084 3084 3083 3083 3082 3081 3082 3081 3080 3079 3078 3078 3077 3076 3074 3072 3071 3072 3071 3070 3069 3069 3068 3067 3068 3068
3079 3079 3079 3080 3080 3080 3080 3081 3081 3081 3081 3081 3082 3082 3082 3081 3081 3081 3080 3080 3079 3079 3078 3078 3077 3077 3076 3075 3074 3074 3073 3071 3069 3067 3066 3066 3067 3065 3064 3063 3061 3061 3061
3075 3075 3075 3075 3075 3076 3076 3076 3076 3076 3077 3078 3078 3078 3077 3077 3077 3077 3076 3076 3075 3074 3074 3073 3071 3071 3071 3070 3070 3068 3068 3067 3066 3064 3063 3061 3060 3060 3059 3058 3056 3055 3054
3072 3071 3071 3071 3071 3071 3072 3072 3072 3072 3072 3073 3073 3073 3073 3073 3073 3072 3071 3070 3070 3070 3068 3067 3066 3065 3064 3063 3063 3063 3063 3062 3060 3059 3057 3056 3054 3053 3053 3053 3051 3050 3049
3067 3066 3067 3067 3066 3065 3066 3066 3067 3067 3067 3068 3068 3068 3068 3068 3067 3067 3066 3065 3065 3064 3063 3062 3060 3059 3057 3056 3056 3056 3056 3055 3055 3053 3051 3050 3048 3047 3045 3045 3046 3045 3044
3063 3062 3062 3062 3061 3061 3061 3061 3061 3061 3062 3062 3062 3062 3062 3062 3062 3061 3061 3060 3059 3058 3057 3055 3054 3052 3050 3049 3048 3047 3046 3046 3047 3046 3045 3044 3042 3040 3039 3039 3039 3038 3038
3057 3057 3057 3057 3057 3056 3055 3055 3055 3054 3054 3055 3055 3055 3055 3055 3055 3055 3055 3054 3053 3051 3050 3048 3046 3044 3043 3041 3039 3038 3037 3036 3036 3036 3037 3036 3035 3034 3033 3031 3031 3031 3031
3051 3051 3052 3052 3051 3050 3050 3049 3048 3048 3047 3048 3049 3049 3049 3049 3048 3048 3047 3046 3044 3043 3041 3039 3037 3036 3035 3033 3031 3029 3028 3027 3027 3026 3025 3025 3026 3024 3023 3023 3022 3021 3021
3046 3047 3047 3047 3047 3046 3044 3043 3043 3042 3042 3042 3042 3042 3041 3040 3039 3038 3037 3035 3034 3032 3031 3029 3027 3025 3024 3022 3021 3019 3018 3017 3017 3016 3016 3015 3014 3014 3013 3011 3011 3011 3011
3041 3041 3041 3039 3039 3037 3035 3036 3036 3035 3034 3034 3033 3032 3031 3030 3029 3028 3027 3026 3024 3023 3021 3019 3017 3015 3013 3012 3010 3009 3008 3007 3006 3006 3005 3004 3003 3003 3002 3002 3001 3000 3000
3035 3034 3032 3031 3029 3028 3027 3026 3026 3025 3025 3024 3023 3022 3022 3021 3020 3019 3017 3016 3015 3013 3011 3009 3007 3005 3002 3000 2999 2998 2997 2997 2996 2996 2995 2994 2993 2993 2992 2992 2991 2991 2991
3026 3025 3025 3023 3022 3019 3018 3016 3016 3016 3016 3016 3015 3013 3012 3011 3010 3008 3007 3005 3003 3001 2998 2997 2995 2993 2991 2990 2988 2987 2986 2985 2985 2984 2984 2983 2983 2983 2982 2981 2981 2980 2979
3018 3016 3016 3013 3012 3011 3009 3008 3008 3008 3008 3008 3007 3005 3004 3001 2999 2998 2996 2993 2991 2989 2987 2986 2984 2982 2981 2980 2978 2977 2976 2975 2974 2973 2973 2973 2972 2972 2971 2970 2970 2970 2968
3009 3007 3006 3004 3002 3002 3001 3001 2999 3000 3000 2999 2997 2995 2993 2992 2989 2987 2985 2983 2981 2978 2976 2975 2974 2972 2971 2970 2968 2966 2965 2964 2963 2963 2962 2963 2962 2961 2961 2960 2960 2958 2957
2997 2995 2994 2994 2994 2994 2994 2994 2993 2991 2990 2988 2988 2985 2984 2982 2979 2977 2975 2973 2972 2970 2968 2966 2964 2962 2961 2959 2957 2955 2954 2953 2953 2952 2951 2951 2951 2951 2950 2949 2949 2948 2948
2988 2988 2987 2987 2987 2987 2986 2985 2983 2982 2981 2979 2977 2975 2973 2972 2969 2967 2964 2962 2961 2959 2957 2955 2953 2951 2949 2947 2945 2943 2942 2941 2940 2940 2939 2939 2939 2939 2938 2938 2938 2938 2938
2982 2982 2982 2981 2980 2979 2977 2976 2974 2973 2971 2970 2969 2968 2965 2963 2960 2957 2954 2951 2949 2947 2945 2943 2941 2939 2937 2935 2933 2931 2929 2928 2927 2927 2927 2927 2927 2926 2926 2927 2926 2926 2926
2975 2975 2974 2974 2972 2971 2969 2967 2966 2964 2963 2961 2960 2957 2955 2951 2949 2946 2943 2939 2937 2935 2932 2930 2928 2926 2924 2922 2921 2919 2916 2915 2915 2915 2915 2915 2915 2915 2915 2915 2915 2915 2916
2968 2967 2966 2964 2963 2962 2961 2959 2957 2955 2953 2950 2948 2946 2943 2939 2936 2933 2929 2926 2923 2920 2918 2915 2913 2911 2910 2908 2907 2905 2903 2901 2902 2902 2902 2902 2902 2903 2903 2902 2904 2905 2906
2960 2959 2958 2957 2955 2954 2952 2949 2946 2944 2941 2939 2936 2933 2929 2925 2921 2918 2915 2912 2909 2906 2904 2901 2899 2896 2895 2894 2892 2891 2889 2887 2888 2888 2889 2890 2890 2891 2891 2891 2892 2893 2897
2954 2953 2951 2949 2947 2944 2943 2939 2935 2931 2929 2926 2923 2920 2916 2913 2909 2907 2903 2899 2896 2893 2890 2887 2885 2882 2881 2880 2878 2877 2875 2874 2874 2874 2876 2878 2878 2878 2879 2880 2881 2883 2886
2947 2944 2943 2940 2938 2935 2932 2929 2925 2921 2918 2916 2913 2910 2907 2902 2897 2894 2891 2887 2884 2880 2877 2874 2871 2870 2869 2866 2865 2864 2863 2863 2861 2861 2863 2865 2866 2866 2867 2869 2870 2873 2875
2939 2936 2933 2931 2929 2925 2922 2920 2916 2912 2908 2906 2903 2899 2895 2890 2886 2882 2878 2874 2871 2867 2864 2860 2858 2857 2856 2854 2853 2852 2851 2851 2851 2850 2851 2853 2854 2855 2856 2858 2860 2863 2866
2931 2928 2925 2922 2920 2918 2914 2911 2906 2902 2899 2896 2891 2887 2882 2878 2874 2870 2865 2861 2858 2854 2851 2847 2844 2842 2841 2841 2841 2840 2840 2840 2841 2841 2841 2842 2843 2845 2846 2848 2850 2854 2856
2922 2920 2917 2914 2912 2908 2905 2901 2896 2890 2887 2883 2878 2874 2869 2865 2861 2857 2853 2848 2845 2841 2836 2834 2832 2829 2828 2828 2828 2829 2830 2831 2831 2831 2831 2832 2833 2834 2836 2839 2841 2845 2849
2914 2911 2908 2905 2902 2899 2896 2891 2884 2878 2874 2870 2865 2860 2855 2851 2846 2842 2839 2837 2831 2827 2823 2821 2818 2816 2814 2815 2816 2817 2819 2821 2823 2823 2821 2822 2823 2824 2827 2831 2834 2837 2841